Tracking 19720 objects as of 25-Jun-2019
HD Live streaming from Space Station
objects crossing your sky now

NAVSTAR 77 (USA 289)

Track NAVSTAR 77 (USA 289) now!
NAVSTAR 77 (USA 289) is classified as:


NORAD ID: 43873
Int'l Code: 2018-109A
Perigee: 20,172.5 km
Apogee: 20,207.6 km
Inclination: 55.0 °
Period: 718.0 minutes
Semi major axis: 26561 km
RCS: Unknown
Launch date: December 23, 2018
Source: United States (US)
Launch site: AIR FORCE EASTERN TEST RANGE (AFETR)
aabbcc
Your satellite tracking list
Your tracking list is empty




NASA's NSSDC Master Catalog

Two Line Element Set (TLE):
1 43873U 18109A   19176.34515362  .00000086  00000-0  00000+0 0  9990
2 43873  54.9987 192.8633 0006615 274.9996  84.9729  2.00555799  3908
Source of the keplerian elements: AFSPC